Location: downtown San Diego
(32.7310°N, 117.1990°W)
Time: 18:11:35
(UTC-07:00)

Cosmos 1500 - Pass Details

Date: 19 May 2017
Orbit: 501 x 525 km, 82.5° (Epoch: 23 September)

Event Time Altitude Azimuth Distance (km) Brightness Sun altitude
Rises 21:38:52 0° 345° (NNW) 2,613 7.7 -21.0°
Reaches altitude 10° 21:41:04 10° 338° (NNW) 1,721 6.8 -21.3°
Maximum altitude 21:44:37 41° 267° (W) 739 4.2 -21.8°
Enters shadow 21:45:47 31° 224° (SW) 894 4.3 -22.0°
